Terug naar catalogus

STARLINK-36609

ActiefCommunicatieSSO
NORAD 67582·PAYLOAD·🇺🇸 United States

Gelanceerd Jan 25, 2026 vanaf Vandenberg Space Force Base

Loading…

Volgende Passages (komende 24 uur)

TLE

VersSource: CelesTrak SupGP

Epoch: Sep 15, 2026, 04:08 UTC

1 67582C 26016X   26258.17270833  .00019565  00000+0  60756-3 0  2587
2 67582  97.2849 316.8847 0000946  75.8139 232.0858 15.33417994    13

Volg STARLINK-36609 in realtime met AllMySat

Download on the App Store